This demonstration page uses our WeatherBlox Daily Observations layout. Learn more.

Left ArrowRight Arrow

Hourly Observations for November 27, 2022

Temp ( °F °C ) Dew Point ( °F °C ) Humidity (%) Winds ( mph kmh ) Pressure ( in mb ) Visibility ( mi km ) Precip ( " mm )
12:54 am 00:54 Cloudy 43 6.1 31 -0.6 62 62 N 30 48 29.75 1007 10 16 0.00 0.00
1:54 am 01:54 Partly Cloudy 39 3.9 29 -1.7 67 67 N 25 41 29.76 1008 10 16 0.00 0.00
2:54 am 02:54 Clear 38 3.3 28 -2.2 67 67 N 25 41 29.77 1008 10 16 0.00 0.00
3:54 am 03:54 Clear 36 2.2 28 -2.2 73 73 N 21 33 29.80 1009 10 16 0.00 0.00
4:54 am 04:54 Clear 35 1.7 28 -2.2 75 75 N 20 31 29.81 1010 10 16 0.00 0.00
5:54 am 05:54 Clear 35 1.7 27 -2.8 72 72 NNW 18 30 29.83 1010 10 16 0.00 0.00
6:54 am 06:54 Clear 34 1.1 26 -3.3 72 72 NNW 15 24 29.87 1011 10 16 0.00 0.00
7:54 am 07:54 Sunny 34 1.1 25 -3.9 69 69 NNW 16 26 29.88 1012 10 16 0.00 0.00
8:54 am 08:54 Sunny 35 1.7 26 -3.3 69 69 NNW 16 26 29.91 1013 10 16 0.00 0.00
9:54 am 09:54 Sunny 39 3.9 25 -3.9 57 57 NNW 17 28 29.92 1013 10 16 0.00 0.00
10:54 am 10:54 Sunny 43 6.1 22 -5.6 43 43 N 16 26 29.93 1014 10 16 0.00 0.00
11:54 am 11:54 Sunny 43 6.1 21 -6.1 41 41 NNW 17 28 29.94 1014 10 16 0.00 0.00
12:54 pm 12:54 Sunny 45 7.2 22 -5.6 40 40 NNW 16 26 29.92 1013 10 16 0.00 0.00
1:54 pm 13:54 Sunny 45 7.2 22 -5.6 40 40 NNW 12 19 29.91 1013 10 16 0.00 0.00
2:54 pm 14:54 Sunny 45 7.2 23 -5 41 41 WNW 9 15 29.91 1013 10 16 0.00 0.00
3:54 pm 15:54 Sunny 44 6.7 22 -5.6 41 41 NW 7 11 29.91 1013 10 16 0.00 0.00
4:54 pm 16:54 Sunny 41 5 21 -6.1 44 44 NW 8 13 29.92 1013 10 16 0.00 0.00
5:54 pm 17:54 Clear 38 3.3 21 -6.1 50 50 WNW 6 9 29.92 1013 10 16 0.00 0.00
6:54 pm 18:54 Clear 27 -2.8 17 -8.3 66 66 N 5 7 29.93 1014 10 16 0.00 0.00
7:54 pm 19:54 Clear 28 -2.2 17 -8.3 63 63 Calm 29.93 1014 10 16 0.00 0.00
8:54 pm 20:54 Clear 25 -3.9 16 -8.9 68 68 Calm 29.94 1014 10 16 0.00 0.00
9:54 pm 21:54 Clear 22 -5.6 16 -8.9 77 77 S 6 9 29.93 1013 10 16 0.00 0.00
10:54 pm 22:54 Clear 23 -5 16 -8.9 74 74 SSE 5 7 29.91 1013 10 16 0.00 0.00
11:54 pm 23:54 Clear 22 -5.6 16 -8.9 77 77 S 6 9 29.90 1012 10 16 0.00 0.00

Powered by AerisWeather